Time,TemperatureF,DewpointF,PressureIn,WindDirection,WindDirectionDegrees,WindSpeedMPH,WindSpeedGustMPH,Humidity,HourlyPrecipIn,Conditions,Clouds,dailyrainin,SoftwareType,DateUTC
2013-04-11 00:01:00,63.0,22.0,29.97,WSW,238,3.0,4.0,21,0.00,,,0.00,,2013-04-11 07:01:00,
2013-04-11 00:12:00,63.0,22.0,29.97,WSW,238,3.0,4.0,21,0.00,,,0.00,,2013-04-11 07:12:00,
2013-04-11 00:21:00,61.0,22.0,29.98,SW,236,0.0,3.0,22,0.00,,,0.00,,2013-04-11 07:21:00,
2013-04-11 00:31:00,60.0,23.0,29.98,South,169,2.0,3.0,24,0.00,,,0.00,,2013-04-11 07:31:00,
2013-04-11 00:42:00,60.0,23.0,29.98,South,169,2.0,3.0,24,0.00,,,0.00,,2013-04-11 07:42:00,
2013-04-11 00:52:00,59.0,22.0,29.98,ESE,108,3.0,4.0,24,0.00,,,0.00,,2013-04-11 07:52:00,
2013-04-11 01:02:00,59.0,22.0,29.98,ENE,68,2.0,5.0,24,0.00,,,0.00,,2013-04-11 08:02:00,
2013-04-11 01:11:00,59.0,22.0,29.98,ENE,68,2.0,5.0,24,0.00,,,0.00,,2013-04-11 08:11:00,
2013-04-11 01:22:00,57.0,22.0,29.97,ENE,68,0.0,1.0,25,0.00,,,0.00,,2013-04-11 08:22:00,
2013-04-11 01:32:00,57.0,23.0,29.97,ENE,68,0.0,3.0,27,0.00,,,0.00,,2013-04-11 08:32:00,
2013-04-11 01:41:00,57.0,23.0,29.97,ENE,68,0.0,3.0,27,0.00,,,0.00,,2013-04-11 08:41:00,
2013-04-11 01:52:00,56.0,23.0,29.96,ENE,68,0.0,0.0,27,0.00,,,0.00,,2013-04-11 08:52:00,
2013-04-11 02:01:00,56.0,23.0,29.96,East,86,5.0,6.0,27,0.00,,,0.00,,2013-04-11 09:01:00,
2013-04-11 02:11:00,56.0,23.0,29.96,East,86,5.0,6.0,27,0.00,,,0.00,,2013-04-11 09:11:00,
2013-04-11 02:22:00,55.0,22.0,29.94,East,94,5.0,7.0,27,0.00,,,0.00,,2013-04-11 09:22:00,
2013-04-11 02:32:00,54.0,22.0,29.94,East,94,5.0,6.0,28,0.00,,,0.00,,2013-04-11 09:32:00,
2013-04-11 02:42:00,54.0,22.0,29.94,East,94,5.0,6.0,28,0.00,,,0.00,,2013-04-11 09:42:00,
2013-04-11 02:53:00,53.0,22.0,29.93,East,94,3.0,3.0,29,0.00,,,0.00,,2013-04-11 09:53:00,
2013-04-11 03:02:00,53.0,22.0,29.93,East,94,2.0,4.0,29,0.00,,,0.00,,2013-04-11 10:02:00,
2013-04-11 03:12:00,53.0,24.0,29.92,East,94,0.0,5.0,32,0.00,,,0.00,,2013-04-11 10:12:00,
2013-04-11 03:22:00,53.0,24.0,29.92,East,94,0.0,5.0,32,0.00,,,0.00,,2013-04-11 10:22:00,
2013-04-11 03:32:00,53.0,23.0,29.92,East,97,4.0,6.0,31,0.00,,,0.00,,2013-04-11 10:32:00,
2013-04-11 03:41:00,53.0,23.0,29.92,East,97,4.0,6.0,31,0.00,,,0.00,,2013-04-11 10:41:00,
2013-04-11 03:52:00,52.0,22.0,29.90,East,97,2.0,3.0,31,0.00,,,0.00,,2013-04-11 10:52:00,
2013-04-11 04:02:00,52.0,22.0,29.90,East,97,2.0,3.0,31,0.00,,,0.00,,2013-04-11 11:02:00,
2013-04-11 04:11:00,52.0,24.0,29.90,East,97,2.0,4.0,33,0.00,,,0.00,,2013-04-11 11:11:00,
2013-04-11 04:22:00,53.0,23.0,29.89,NW,326,4.0,6.0,31,0.00,,,0.00,,2013-04-11 11:22:00,
2013-04-11 04:31:00,54.0,23.0,29.89,NNW,328,2.0,7.0,30,0.00,,,0.00,,2013-04-11 11:31:00,
2013-04-11 04:42:00,53.0,22.0,29.88,NNW,330,1.0,5.0,29,0.00,,,0.00,,2013-04-11 11:42:00,
2013-04-11 04:52:00,53.0,22.0,29.88,NNW,330,1.0,5.0,29,0.00,,,0.00,,2013-04-11 11:52:00,
2013-04-11 05:01:00,53.0,23.0,29.88,NNW,330,2.0,3.0,31,0.00,,,0.00,,2013-04-11 12:01:00,
2013-04-11 05:12:00,53.0,23.0,29.88,NNW,330,2.0,3.0,31,0.00,,,0.00,,2013-04-11 12:12:00,
2013-04-11 05:22:00,52.0,23.0,29.88,NNW,330,1.0,4.0,32,0.00,,,0.00,,2013-04-11 12:22:00,
2013-04-11 05:31:00,51.0,23.0,29.88,NW,326,2.0,5.0,33,0.00,,,0.00,,2013-04-11 12:31:00,
2013-04-11 05:42:00,51.0,23.0,29.88,NW,326,2.0,5.0,33,0.00,,,0.00,,2013-04-11 12:42:00,
2013-04-11 05:52:00,51.0,23.0,29.88,SSW,195,3.0,6.0,33,0.00,,,0.00,,2013-04-11 12:52:00,
2013-04-11 06:02:00,51.0,23.0,29.88,SSW,195,4.0,6.0,33,0.00,,,0.00,,2013-04-11 13:02:00,
2013-04-11 06:12:00,51.0,23.0,29.88,South,179,2.0,3.0,33,0.00,,,0.00,,2013-04-11 13:12:00,
2013-04-11 06:22:00,51.0,23.0,29.88,South,179,2.0,3.0,33,0.00,,,0.00,,2013-04-11 13:22:00,
2013-04-11 06:32:00,51.0,23.0,29.88,SSW,205,2.0,5.0,33,0.00,,,0.00,,2013-04-11 13:32:00,
2013-04-11 06:42:00,51.0,23.0,29.88,SSW,205,2.0,5.0,33,0.00,,,0.00,,2013-04-11 13:42:00,
2013-04-11 06:53:00,53.0,24.0,29.88,SSE,161,4.0,6.0,32,0.00,,,0.00,,2013-04-11 13:53:00,
2013-04-11 07:01:00,54.0,24.0,29.88,SW,231,1.0,6.0,31,0.00,,,0.00,,2013-04-11 14:01:00,
2013-04-11 07:12:00,54.0,23.0,29.89,SSW,207,2.0,6.0,30,0.00,,,0.00,,2013-04-11 14:12:00,
2013-04-11 07:21:00,54.0,23.0,29.89,SSW,207,2.0,6.0,30,0.00,,,0.00,,2013-04-11 14:21:00,
2013-04-11 07:31:00,55.0,24.0,29.89,South,181,5.0,7.0,30,0.00,,,0.00,,2013-04-11 14:31:00,
2013-04-11 07:41:00,55.0,24.0,29.89,South,181,5.0,7.0,30,0.00,,,0.00,,2013-04-11 14:41:00,
2013-04-11 07:52:00,57.0,24.0,29.88,SSW,200,9.0,12.0,28,0.00,,,0.00,,2013-04-11 14:52:00,
2013-04-11 08:02:00,60.0,26.0,29.88,South,187,6.0,13.0,27,0.00,,,0.00,,2013-04-11 15:02:00,
2013-04-11 08:12:00,64.0,24.0,29.85,NNW,341,10.0,13.0,22,0.00,,,0.00,,2013-04-11 15:12:00,
2013-04-11 08:21:00,64.0,24.0,29.85,NNW,341,10.0,13.0,22,0.00,,,0.00,,2013-04-11 15:21:00,
2013-04-11 08:32:00,64.0,24.0,29.85,NNW,347,9.0,11.0,22,0.00,,,0.00,,2013-04-11 15:32:00,
2013-04-11 08:42:00,64.0,24.0,29.85,NNW,347,9.0,11.0,22,0.00,,,0.00,,2013-04-11 15:42:00,
2013-04-11 08:53:00,61.0,24.0,29.88,NE,56,5.0,9.0,24,0.00,,,0.00,,2013-04-11 15:53:00,
2013-04-11 09:02:00,63.0,26.0,29.88,ENE,68,2.0,4.0,24,0.00,,,0.00,,2013-04-11 16:02:00,
2013-04-11 09:12:00,63.0,26.0,29.88,ENE,68,2.0,4.0,24,0.00,,,0.00,,2013-04-11 16:12:00,
2013-04-11 09:22:00,67.0,25.0,29.86,NNW,329,8.0,12.0,20,0.00,,,0.00,,2013-04-11 16:22:00,
2013-04-11 09:32:00,66.0,24.0,29.86,NW,326,10.0,13.0,20,0.00,,,0.00,,2013-04-11 16:32:00,
2013-04-11 09:41:00,66.0,25.0,29.88,West,269,6.0,9.0,21,0.00,,,0.00,,2013-04-11 16:41:00,
2013-04-11 09:52:00,66.0,25.0,29.88,West,269,6.0,9.0,21,0.00,,,0.00,,2013-04-11 16:52:00,
2013-04-11 10:01:00,67.0,25.0,29.88,West,265,3.0,9.0,20,0.00,,,0.00,,2013-04-11 17:01:00,
2013-04-11 10:12:00,67.0,25.0,29.88,West,265,3.0,9.0,20,0.00,,,0.00,,2013-04-11 17:12:00,
2013-04-11 10:22:00,70.0,25.0,29.87,West,263,4.0,7.0,18,0.00,,,0.00,,2013-04-11 17:22:00,
2013-04-11 10:32:00,71.0,24.0,29.87,West,262,2.0,6.0,17,0.00,,,0.00,,2013-04-11 17:32:00,
2013-04-11 10:42:00,71.0,24.0,29.87,West,262,2.0,6.0,17,0.00,,,0.00,,2013-04-11 17:42:00,
2013-04-11 10:52:00,73.0,24.0,29.89,NW,311,5.0,10.0,16,0.00,,,0.00,,2013-04-11 17:52:00,
2013-04-11 11:01:00,73.0,24.0,29.89,WNW,297,5.0,9.0,16,0.00,,,0.00,,2013-04-11 18:01:00,
2013-04-11 11:12:00,73.0,24.0,29.89,WNW,297,5.0,9.0,16,0.00,,,0.00,,2013-04-11 18:12:00,
2013-04-11 11:22:00,75.0,24.0,29.89,NNW,345,3.0,7.0,15,0.00,,,0.00,,2013-04-11 18:22:00,
2013-04-11 11:32:00,74.0,23.0,29.89,NNE,16,2.0,5.0,15,0.00,,,0.00,,2013-04-11 18:32:00,
2013-04-11 11:52:00,75.0,23.0,29.87,NE,52,1.0,10.0,14,0.00,,,0.00,,2013-04-11 18:52:00,
2013-04-11 12:02:00,76.0,23.0,29.87,NNW,329,0.0,6.0,14,0.00,,,0.00,,2013-04-11 19:02:00,
2013-04-11 12:13:00,76.0,23.0,29.87,NNW,329,0.0,6.0,14,0.00,,,0.00,,2013-04-11 19:13:00,
2013-04-11 12:21:00,78.0,21.0,29.85,ENE,76,8.0,16.0,12,0.00,,,0.00,,2013-04-11 19:21:00,
2013-04-11 12:32:00,78.0,21.0,29.85,NE,51,6.0,11.0,12,0.00,,,0.00,,2013-04-11 19:32:00,
2013-04-11 12:42:00,78.0,21.0,29.85,NE,51,6.0,11.0,12,0.00,,,0.00,,2013-04-11 19:42:00,
2013-04-11 12:53:00,79.0,22.0,29.84,ENE,59,5.0,12.0,12,0.00,,,0.00,,2013-04-11 19:53:00,
2013-04-11 13:02:00,79.0,20.0,29.84,NE,55,8.0,13.0,11,0.00,,,0.00,,2013-04-11 20:02:00,
2013-04-11 13:12:00,79.0,20.0,29.84,NE,55,8.0,13.0,11,0.00,,,0.00,,2013-04-11 20:12:00,
2013-04-11 13:21:00,80.0,21.0,29.83,NE,50,7.0,13.0,11,0.00,,,0.00,,2013-04-11 20:21:00,
2013-04-11 13:32:00,80.0,21.0,29.83,East,91,14.0,17.0,11,0.00,,,0.00,,2013-04-11 20:32:00,
2013-04-11 13:42:00,80.0,21.0,29.83,East,91,14.0,17.0,11,0.00,,,0.00,,2013-04-11 20:42:00,
2013-04-11 13:52:00,79.0,20.0,29.83,East,96,5.0,11.0,11,0.00,,,0.00,,2013-04-11 20:52:00,
2013-04-11 14:01:00,80.0,21.0,29.83,East,96,4.0,13.0,11,0.00,,,0.00,,2013-04-11 21:01:00,
2013-04-11 14:11:00,80.0,21.0,29.83,East,96,4.0,13.0,11,0.00,,,0.00,,2013-04-11 21:11:00,
2013-04-11 14:22:00,80.0,21.0,29.81,ENE,66,3.0,11.0,11,0.00,,,0.00,,2013-04-11 21:22:00,
2013-04-11 14:32:00,81.0,22.0,29.81,East,84,5.0,12.0,11,0.00,,,0.00,,2013-04-11 21:32:00,
2013-04-11 14:42:00,81.0,22.0,29.81,East,84,5.0,12.0,11,0.00,,,0.00,,2013-04-11 21:42:00,
2013-04-11 14:53:00,82.0,20.0,29.80,ENE,72,8.0,15.0,10,0.00,,,0.00,,2013-04-11 21:53:00,
2013-04-11 15:02:00,82.0,20.0,29.80,NNE,18,3.0,10.0,10,0.00,,,0.00,,2013-04-11 22:02:00,
2013-04-11 15:13:00,82.0,20.0,29.80,NNE,18,3.0,10.0,10,0.00,,,0.00,,2013-04-11 22:13:00,
2013-04-11 15:22:00,82.0,20.0,29.79,NE,53,3.0,13.0,10,0.00,,,0.00,,2013-04-11 22:22:00,
2013-04-11 15:32:00,83.0,21.0,29.79,ENE,76,5.0,10.0,10,0.00,,,0.00,,2013-04-11 22:32:00,
2013-04-11 15:43:00,83.0,21.0,29.79,ENE,76,5.0,10.0,10,0.00,,,0.00,,2013-04-11 22:43:00,
2013-04-11 15:53:00,83.0,21.0,29.76,East,89,8.0,15.0,10,0.00,,,0.00,,2013-04-11 22:53:00,
2013-04-11 16:02:00,82.0,20.0,29.76,ENE,68,2.0,12.0,10,0.00,,,0.00,,2013-04-11 23:02:00,
2013-04-11 16:12:00,82.0,20.0,29.76,ENE,68,2.0,12.0,10,0.00,,,0.00,,2013-04-11 23:12:00,
2013-04-11 16:22:00,82.0,20.0,29.75,NE,46,4.0,12.0,10,0.00,,,0.00,,2013-04-11 23:22:00,
2013-04-11 16:31:00,83.0,21.0,29.75,East,97,5.0,12.0,10,0.00,,,0.00,,2013-04-11 23:31:00,
2013-04-11 16:42:00,83.0,21.0,29.75,East,97,5.0,12.0,10,0.00,,,0.00,,2013-04-11 23:42:00,
2013-04-11 16:53:00,83.0,21.0,29.74,ESE,115,3.0,10.0,10,0.00,,,0.00,,2013-04-11 23:53:00,
2013-04-11 17:02:00,83.0,21.0,29.74,East,99,4.0,11.0,10,0.00,,,0.00,,2013-04-12 00:02:00,
2013-04-11 17:11:00,83.0,21.0,29.74,East,99,4.0,11.0,10,0.00,,,0.00,,2013-04-12 00:11:00,
2013-04-11 17:21:00,82.0,20.0,29.74,East,95,8.0,12.0,10,0.00,,,0.00,,2013-04-12 00:21:00,
2013-04-11 17:32:00,82.0,20.0,29.74,ENE,74,4.0,10.0,10,0.00,,,0.00,,2013-04-12 00:32:00,
2013-04-11 17:42:00,82.0,20.0,29.74,ENE,74,4.0,10.0,10,0.00,,,0.00,,2013-04-12 00:42:00,
2013-04-11 17:52:00,81.0,19.0,29.74,ENE,70,4.0,9.0,10,0.00,,,0.00,,2013-04-12 00:52:00,
2013-04-11 18:02:00,81.0,19.0,29.74,NE,44,6.0,11.0,10,0.00,,,0.00,,2013-04-12 01:02:00,
2013-04-11 18:11:00,81.0,19.0,29.74,NE,44,6.0,11.0,10,0.00,,,0.00,,2013-04-12 01:11:00,
2013-04-11 18:22:00,81.0,22.0,29.73,East,92,1.0,13.0,11,0.00,,,0.00,,2013-04-12 01:22:00,
2013-04-11 18:32:00,81.0,19.0,29.73,East,93,5.0,10.0,10,0.00,,,0.00,,2013-04-12 01:32:00,
2013-04-11 18:42:00,81.0,19.0,29.73,East,93,5.0,10.0,10,0.00,,,0.00,,2013-04-12 01:42:00,
2013-04-11 18:52:00,80.0,21.0,29.73,East,96,2.0,10.0,11,0.00,,,0.00,,2013-04-12 01:52:00,
2013-04-11 19:02:00,79.0,20.0,29.73,East,101,5.0,9.0,11,0.00,,,0.00,,2013-04-12 02:02:00,
2013-04-11 19:12:00,79.0,20.0,29.73,East,101,5.0,9.0,11,0.00,,,0.00,,2013-04-12 02:12:00,
2013-04-11 19:22:00,78.0,19.0,29.73,ENE,72,4.0,9.0,11,0.00,,,0.00,,2013-04-12 02:22:00,
2013-04-11 19:32:00,77.0,20.0,29.73,ENE,72,5.0,5.0,12,0.00,,,0.00,,2013-04-12 02:32:00,
2013-04-11 19:42:00,77.0,20.0,29.73,ENE,72,5.0,5.0,12,0.00,,,0.00,,2013-04-12 02:42:00,
2013-04-11 19:52:00,75.0,21.0,29.72,East,91,4.0,7.0,13,0.00,,,0.00,,2013-04-12 02:52:00,
2013-04-11 20:01:00,74.0,26.0,29.72,SW,214,5.0,7.0,17,0.00,,,0.00,,2013-04-12 03:01:00,
2013-04-11 20:11:00,74.0,26.0,29.72,SW,214,5.0,7.0,17,0.00,,,0.00,,2013-04-12 03:11:00,
2013-04-11 20:21:00,73.0,28.0,29.74,WSW,242,6.0,10.0,19,0.00,,,0.00,,2013-04-12 03:21:00,
2013-04-11 20:32:00,72.0,27.0,29.74,WSW,249,5.0,9.0,19,0.00,,,0.00,,2013-04-12 03:32:00,
2013-04-11 20:43:00,72.0,27.0,29.74,WSW,249,5.0,9.0,19,0.00,,,0.00,,2013-04-12 03:43:00,
2013-04-11 20:53:00,71.0,29.0,29.74,SW,224,4.0,7.0,21,0.00,,,0.00,,2013-04-12 03:53:00,
2013-04-11 21:02:00,70.0,28.0,29.74,SW,232,4.0,10.0,21,0.00,,,0.00,,2013-04-12 04:02:00,
2013-04-11 21:12:00,70.0,28.0,29.74,SW,232,4.0,10.0,21,0.00,,,0.00,,2013-04-12 04:12:00,
2013-04-11 21:22:00,70.0,30.0,29.75,SW,230,5.0,9.0,23,0.00,,,0.00,,2013-04-12 04:22:00,
2013-04-11 21:33:00,69.0,31.0,29.75,WSW,244,5.0,9.0,24,0.00,,,0.00,,2013-04-12 04:33:00,
2013-04-11 21:42:00,69.0,31.0,29.75,WSW,244,5.0,9.0,24,0.00,,,0.00,,2013-04-12 04:42:00,
2013-04-11 21:52:00,69.0,31.0,29.79,SW,228,4.0,6.0,24,0.00,,,0.00,,2013-04-12 04:52:00,
2013-04-11 22:02:00,69.0,31.0,29.79,SW,227,3.0,6.0,24,0.00,,,0.00,,2013-04-12 05:02:00,
2013-04-11 22:11:00,69.0,31.0,29.79,SW,227,3.0,6.0,24,0.00,,,0.00,,2013-04-12 05:11:00,
2013-04-11 22:22:00,67.0,31.0,29.77,SSE,153,4.0,5.0,26,0.00,,,0.00,,2013-04-12 05:22:00,
2013-04-11 22:32:00,66.0,31.0,29.77,SE,146,6.0,7.0,27,0.00,,,0.00,,2013-04-12 05:32:00,
2013-04-11 22:42:00,66.0,31.0,29.77,SE,146,6.0,7.0,27,0.00,,,0.00,,2013-04-12 05:42:00,
2013-04-11 22:52:00,63.0,31.0,29.80,South,179,5.0,6.0,30,0.00,,,0.00,,2013-04-12 05:52:00,
2013-04-11 23:01:00,63.0,32.0,29.80,South,174,4.0,6.0,31,0.00,,,0.00,,2013-04-12 06:01:00,
2013-04-11 23:11:00,63.0,32.0,29.80,South,174,4.0,6.0,31,0.00,,,0.00,,2013-04-12 06:11:00,
2013-04-11 23:22:00,62.0,33.0,29.78,South,189,4.0,9.0,34,0.00,,,0.00,,2013-04-12 06:22:00,
2013-04-11 23:31:00,62.0,34.0,29.78,South,174,4.0,6.0,35,0.00,,,0.00,,2013-04-12 06:31:00,
2013-04-11 23:42:00,62.0,34.0,29.78,South,174,4.0,6.0,35,0.00,,,0.00,,2013-04-12 06:42:00,
2013-04-11 23:52:00,61.0,31.0,29.81,SSW,199,3.0,4.0,32,0.00,,,0.00,,2013-04-12 06:52:00,